Вернуться в каталог

STARLINK-34294

АктивенСвязьVLEO
NORAD 64599·PAYLOAD·🇺🇸 United States

Запущен Jun 25, 2025 с Cape Canaveral Space Force Station

Loading…

Ближайшие Пролёты (ближайшие 24 часа)

TLE

СвежийSource: CelesTrak SupGP

Эпоха: Sep 15, 2026, 03:25 UTC

1 64599C 25137F   26258.14284722 -.00019870  00000+0 -58713-3 0  2585
2 64599  53.1576 172.5659 0001272  76.1781 112.1100 15.34397591    13

Отслеживайте STARLINK-34294 в реальном времени с AllMySat

Download on the App Store